Location: Piotrkow Trybunalski
(51.4000°N, 19.6830°E)
Time: 20:41:21
(UTC+01:00)

ISS - Visible Passes

Search period start: 24 March 2023 00:00
Search period end: 03 April 2023 01:00
Orbit: 414 x 422 km, 51.6° (Epoch: 24 March)

Date Brightness Start Highest point End Pass type
(mag) Time Alt. Az. Time Alt. Az. Time Alt. Az.
24 Mar -3.8 18:43:09 10° W 18:46:32 89° N 18:49:49 10° E visible
24 Mar -3.3 20:19:59 10° W 20:22:45 57° W 20:22:45 57° W visible
25 Mar -3.8 19:32:04 10° W 19:35:26 90° WSW 19:36:46 34° E visible
25 Mar -1.0 21:08:56 10° W 21:09:42 15° W 21:09:42 15° W visible
26 Mar -3.7 19:44:07 10° W 19:47:29 84° N 19:50:45 11° E visible
26 Mar -3.0 21:20:56 10° W 21:23:41 45° SW 21:23:41 45° SW visible
27 Mar -3.7 20:32:57 10° W 20:36:16 65° SSW 20:37:38 32° SE visible
27 Mar -0.8 22:10:08 10° W 22:10:34 12° W 22:10:34 12° W visible
28 Mar -3.7 19:44:55 10° W 19:48:17 80° SSW 19:51:34 10° ESE visible
28 Mar -2.2 21:21:52 10° W 21:24:30 27° SW 21:24:30 27° SW visible
29 Mar -2.8 20:33:43 10° W 20:36:51 38° SSW 20:38:26 23° SSE visible
30 Mar -3.2 19:45:34 10° W 19:48:51 51° SSW 19:52:06 10° SE visible
30 Mar -1.3 21:23:14 10° WSW 21:25:03 14° SW 21:25:19 14° SW visible
31 Mar -1.7 20:34:36 10° W 20:37:09 20° SW 20:39:17 12° S visible
01 Apr -2.1 19:46:13 10° W 19:49:09 28° SSW 19:52:04 10° SSE visible
